Time,TemperatureF,DewpointF,PressureIn,WindDirection,WindDirectionDegrees,WindSpeedMPH,WindSpeedGustMPH,Humidity,HourlyPrecipIn,Conditions,Clouds,dailyrainin,SoftwareType,DateUTC
2013-01-20 00:03:00,37.8,30.2,29.86,North,0,0.0,0.0,74,0.00,,,0.00,WUHU216HW,2013-01-20 08:03:00,
2013-01-20 00:08:00,37.8,30.2,29.86,North,0,0.0,0.0,74,0.00,,,0.00,WUHU216HW,2013-01-20 08:08:00,
2013-01-20 00:13:00,37.8,30.2,29.86,North,0,0.0,0.0,74,0.00,,,0.00,WUHU216HW,2013-01-20 08:13:00,
2013-01-20 00:18:00,37.8,30.2,29.86,North,0,0.0,0.0,74,0.00,,,0.00,WUHU216HW,2013-01-20 08:18:00,
2013-01-20 00:24:00,37.6,30.1,29.87,North,0,0.0,0.0,74,0.00,,,0.00,WUHU216HW,2013-01-20 08:24:00,
2013-01-20 00:29:00,37.4,29.9,29.86,North,0,0.0,0.0,74,0.00,,,0.00,WUHU216HW,2013-01-20 08:29:00,
2013-01-20 00:34:00,37.3,30.1,29.87,North,0,0.0,0.0,75,0.00,,,0.00,WUHU216HW,2013-01-20 08:34:00,
2013-01-20 00:39:00,37.1,29.9,29.87,North,0,0.0,0.0,75,0.00,,,0.00,WUHU216HW,2013-01-20 08:39:00,
2013-01-20 00:44:00,37.1,30.3,29.87,North,0,0.0,0.0,76,0.00,,,0.00,WUHU216HW,2013-01-20 08:44:00,
2013-01-20 00:49:00,36.9,30.1,29.87,North,0,0.0,0.0,76,0.00,,,0.00,WUHU216HW,2013-01-20 08:49:00,
2013-01-20 00:55:00,36.9,30.1,29.86,North,0,0.0,0.0,76,0.00,,,0.00,WUHU216HW,2013-01-20 08:55:00,
2013-01-20 01:00:00,36.7,29.9,29.87,North,0,0.0,0.0,76,0.00,,,0.00,WUHU216HW,2013-01-20 09:00:00,
2013-01-20 01:05:00,36.5,30.0,29.87,North,0,0.0,0.0,77,0.00,,,0.00,WUHU216HW,2013-01-20 09:05:00,
2013-01-20 01:10:00,36.5,30.0,29.86,North,0,0.0,0.0,77,0.00,,,0.00,WUHU216HW,2013-01-20 09:10:00,
2013-01-20 01:15:00,36.4,29.5,29.87,North,0,0.0,0.0,76,0.00,,,0.00,WUHU216HW,2013-01-20 09:15:00,
2013-01-20 01:20:00,36.4,29.5,29.86,North,0,0.0,0.0,76,0.00,,,0.00,WUHU216HW,2013-01-20 09:20:00,
2013-01-20 01:25:00,36.5,30.0,29.86,North,0,0.0,0.0,77,0.00,,,0.00,WUHU216HW,2013-01-20 09:25:00,
2013-01-20 01:31:00,36.5,29.7,29.86,North,0,0.0,0.0,76,0.00,,,0.00,WUHU216HW,2013-01-20 09:31:00,
2013-01-20 01:36:00,36.5,29.7,29.87,North,0,0.0,0.0,76,0.00,,,0.00,WUHU216HW,2013-01-20 09:36:00,
2013-01-20 01:41:00,36.4,29.5,29.87,North,0,0.0,0.0,76,0.00,,,0.00,WUHU216HW,2013-01-20 09:41:00,
2013-01-20 01:46:00,36.2,29.6,29.87,North,0,0.0,0.0,77,0.00,,,0.00,WUHU216HW,2013-01-20 09:46:00,
2013-01-20 01:51:00,36.0,29.4,29.87,North,0,0.0,0.0,77,0.00,,,0.00,WUHU216HW,2013-01-20 09:51:00,
2013-01-20 01:56:00,35.8,29.3,29.87,North,0,0.0,0.0,77,0.00,,,0.00,WUHU216HW,2013-01-20 09:56:00,
2013-01-20 02:02:00,35.6,29.1,29.87,North,0,0.0,0.0,77,0.00,,,0.00,WUHU216HW,2013-01-20 10:02:00,
2013-01-20 02:07:00,35.6,29.1,29.87,North,0,0.0,0.0,77,0.00,,,0.00,WUHU216HW,2013-01-20 10:07:00,
2013-01-20 02:12:00,35.5,29.3,29.87,North,0,0.0,0.0,78,0.00,,,0.00,WUHU216HW,2013-01-20 10:12:00,
2013-01-20 02:17:00,35.3,29.1,29.87,North,0,0.0,0.0,78,0.00,,,0.00,WUHU216HW,2013-01-20 10:17:00,
2013-01-20 02:22:00,35.1,28.9,29.87,North,0,0.0,0.0,78,0.00,,,0.00,WUHU216HW,2013-01-20 10:22:00,
2013-01-20 02:27:00,35.1,28.9,29.88,North,0,0.0,0.0,78,0.00,,,0.00,WUHU216HW,2013-01-20 10:27:00,
2013-01-20 02:33:00,35.1,28.9,29.87,North,0,0.0,0.0,78,0.00,,,0.00,WUHU216HW,2013-01-20 10:33:00,
2013-01-20 02:38:00,35.1,28.9,29.87,North,0,0.0,0.0,78,0.00,,,0.00,WUHU216HW,2013-01-20 10:38:00,
2013-01-20 02:43:00,35.3,29.3,29.87,North,0,0.0,0.0,79,0.00,,,0.00,WUHU216HW,2013-01-20 10:43:00,
2013-01-20 02:48:00,35.3,29.3,29.87,North,0,0.0,0.0,79,0.00,,,0.00,WUHU216HW,2013-01-20 10:48:00,
2013-01-20 02:53:00,35.3,29.3,29.87,North,0,0.0,0.0,79,0.00,,,0.00,WUHU216HW,2013-01-20 10:53:00,
2013-01-20 02:58:00,35.1,29.2,29.87,North,0,0.0,0.0,79,0.00,,,0.00,WUHU216HW,2013-01-20 10:58:00,
2013-01-20 03:04:00,34.9,29.0,29.87,North,0,0.0,0.0,79,0.00,,,0.00,WUHU216HW,2013-01-20 11:04:00,
2013-01-20 03:09:00,34.7,28.8,29.87,North,0,0.0,0.0,79,0.00,,,0.00,WUHU216HW,2013-01-20 11:09:00,
2013-01-20 03:14:00,34.7,28.8,29.87,North,0,0.0,0.0,79,0.00,,,0.00,WUHU216HW,2013-01-20 11:14:00,
2013-01-20 03:19:00,34.6,28.6,29.87,North,0,0.0,0.0,79,0.00,,,0.00,WUHU216HW,2013-01-20 11:19:00,
2013-01-20 03:24:00,34.4,28.4,29.87,North,0,0.0,0.0,79,0.00,,,0.00,WUHU216HW,2013-01-20 11:24:00,
2013-01-20 03:29:00,34.4,28.8,29.87,North,0,0.0,0.0,80,0.00,,,0.00,WUHU216HW,2013-01-20 11:29:00,
2013-01-20 03:35:00,34.2,28.6,29.87,North,0,0.0,0.0,80,0.00,,,0.00,WUHU216HW,2013-01-20 11:35:00,
2013-01-20 03:40:00,34.2,28.6,29.87,North,0,0.0,0.0,80,0.00,,,0.00,WUHU216HW,2013-01-20 11:40:00,
2013-01-20 03:45:00,34.2,28.6,29.86,North,0,0.0,0.0,80,0.00,,,0.00,WUHU216HW,2013-01-20 11:45:00,
2013-01-20 03:50:00,34.0,28.4,29.87,North,0,0.0,0.0,80,0.00,,,0.00,WUHU216HW,2013-01-20 11:50:00,
2013-01-20 03:55:00,34.0,28.4,29.87,North,0,0.0,0.0,80,0.00,,,0.00,WUHU216HW,2013-01-20 11:55:00,
2013-01-20 04:00:00,34.0,28.7,29.87,North,0,0.0,0.0,81,0.00,,,0.00,WUHU216HW,2013-01-20 12:00:00,
2013-01-20 04:06:00,34.0,28.7,29.87,North,0,0.0,0.0,81,0.00,,,0.00,WUHU216HW,2013-01-20 12:06:00,
2013-01-20 04:11:00,33.8,28.5,29.87,North,0,0.0,0.0,81,0.00,,,0.00,WUHU216HW,2013-01-20 12:11:00,
2013-01-20 04:16:00,33.7,28.4,29.87,North,0,0.0,0.0,81,0.00,,,0.00,WUHU216HW,2013-01-20 12:16:00,
2013-01-20 04:21:00,33.5,28.3,29.87,North,0,0.0,0.0,81,0.00,,,0.00,WUHU216HW,2013-01-20 12:21:00,
2013-01-20 04:26:00,33.5,28.3,29.87,North,0,0.0,0.0,81,0.00,,,0.00,WUHU216HW,2013-01-20 12:26:00,
2013-01-20 04:31:00,33.3,28.1,29.87,North,0,0.0,0.0,81,0.00,,,0.00,WUHU216HW,2013-01-20 12:31:00,
2013-01-20 04:37:00,33.1,27.9,29.87,North,0,0.0,0.0,81,0.00,,,0.00,WUHU216HW,2013-01-20 12:37:00,
2013-01-20 04:42:00,33.1,27.9,29.87,North,0,0.0,0.0,81,0.00,,,0.00,WUHU216HW,2013-01-20 12:42:00,
2013-01-20 04:47:00,32.9,28.0,29.87,North,0,0.0,0.0,82,0.00,,,0.00,WUHU216HW,2013-01-20 12:47:00,
2013-01-20 04:52:00,32.8,27.9,29.87,North,0,0.0,0.0,82,0.00,,,0.00,WUHU216HW,2013-01-20 12:52:00,
2013-01-20 04:57:00,32.8,27.9,29.87,North,0,0.0,0.0,82,0.00,,,0.00,WUHU216HW,2013-01-20 12:57:00,
2013-01-20 05:02:00,32.6,27.7,29.87,North,0,0.0,0.0,82,0.00,,,0.00,WUHU216HW,2013-01-20 13:02:00,
2013-01-20 05:08:00,32.6,27.5,29.87,North,0,0.0,0.0,81,0.00,,,0.00,WUHU216HW,2013-01-20 13:08:00,
2013-01-20 05:13:00,32.8,27.5,29.87,North,0,0.0,0.0,81,0.00,,,0.00,WUHU216HW,2013-01-20 13:13:00,
2013-01-20 05:18:00,32.8,27.5,29.87,North,0,0.0,0.0,81,0.00,,,0.00,WUHU216HW,2013-01-20 13:18:00,
2013-01-20 05:23:00,32.8,27.5,29.86,North,0,0.0,0.0,81,0.00,,,0.00,WUHU216HW,2013-01-20 13:23:00,
2013-01-20 05:28:00,32.6,27.5,29.86,North,0,0.0,0.0,81,0.00,,,0.00,WUHU216HW,2013-01-20 13:28:00,
2013-01-20 05:33:00,32.6,27.5,29.86,North,0,0.0,0.0,81,0.00,,,0.00,WUHU216HW,2013-01-20 13:33:00,
2013-01-20 05:39:00,32.4,27.3,29.86,North,0,0.0,0.0,81,0.00,,,0.00,WUHU216HW,2013-01-20 13:39:00,
2013-01-20 05:44:00,32.2,27.1,29.86,North,0,0.0,0.0,81,0.00,,,0.00,WUHU216HW,2013-01-20 13:44:00,
2013-01-20 05:49:00,32.2,27.1,29.86,North,0,0.0,0.0,81,0.00,,,0.00,WUHU216HW,2013-01-20 13:49:00,
2013-01-20 05:54:00,32.0,26.9,29.86,North,0,0.0,0.0,81,0.00,,,0.00,WUHU216HW,2013-01-20 13:54:00,
2013-01-20 05:59:00,32.0,26.9,29.86,North,0,0.0,0.0,81,0.00,,,0.00,WUHU216HW,2013-01-20 13:59:00,
2013-01-20 06:04:00,31.9,26.7,29.86,North,0,0.0,0.0,81,0.00,,,0.00,WUHU216HW,2013-01-20 14:04:00,
2013-01-20 06:09:00,31.9,27.0,29.86,North,0,0.0,0.0,82,0.00,,,0.00,WUHU216HW,2013-01-20 14:09:00,
2013-01-20 06:15:00,31.7,26.8,29.86,North,0,0.0,0.0,82,0.00,,,0.00,WUHU216HW,2013-01-20 14:15:00,
2013-01-20 06:20:00,31.7,26.8,29.85,North,0,0.0,0.0,82,0.00,,,0.00,WUHU216HW,2013-01-20 14:20:00,
2013-01-20 06:25:00,31.7,27.2,29.85,North,0,0.0,0.0,83,0.00,,,0.00,WUHU216HW,2013-01-20 14:25:00,
2013-01-20 06:30:00,31.9,27.4,29.86,North,0,0.0,0.0,83,0.00,,,0.00,WUHU216HW,2013-01-20 14:30:00,
2013-01-20 06:35:00,31.9,27.4,29.86,North,0,0.0,0.0,83,0.00,,,0.00,WUHU216HW,2013-01-20 14:35:00,
2013-01-20 06:40:00,31.9,27.0,29.86,North,0,0.0,0.0,82,0.00,,,0.00,WUHU216HW,2013-01-20 14:40:00,
2013-01-20 06:46:00,31.7,26.8,29.85,North,0,0.0,0.0,82,0.00,,,0.00,WUHU216HW,2013-01-20 14:46:00,
2013-01-20 06:51:00,31.5,27.0,29.85,North,0,0.0,0.0,83,0.00,,,0.00,WUHU216HW,2013-01-20 14:51:00,
2013-01-20 06:56:00,31.5,27.0,29.85,North,0,0.0,0.0,83,0.00,,,0.00,WUHU216HW,2013-01-20 14:56:00,
2013-01-20 07:01:00,31.5,27.0,29.85,North,0,0.0,0.0,83,0.00,,,0.00,WUHU216HW,2013-01-20 15:01:00,
2013-01-20 07:06:00,31.5,27.0,29.86,North,0,0.0,0.0,83,0.00,,,0.00,WUHU216HW,2013-01-20 15:06:00,
2013-01-20 07:11:00,31.5,27.0,29.86,North,0,0.0,0.0,83,0.00,,,0.00,WUHU216HW,2013-01-20 15:11:00,
2013-01-20 07:17:00,31.5,27.0,29.85,North,0,0.0,0.0,83,0.00,,,0.00,WUHU216HW,2013-01-20 15:17:00,
2013-01-20 07:22:00,31.3,26.8,29.86,North,0,0.0,0.0,83,0.00,,,0.00,WUHU216HW,2013-01-20 15:22:00,
2013-01-20 07:27:00,31.3,26.8,29.86,North,0,0.0,0.0,83,0.00,,,0.00,WUHU216HW,2013-01-20 15:27:00,
2013-01-20 07:32:00,31.3,26.8,29.86,North,0,0.0,0.0,83,0.00,,,0.00,WUHU216HW,2013-01-20 15:32:00,
2013-01-20 07:37:00,31.3,26.8,29.86,North,0,0.0,0.0,83,0.00,,,0.00,WUHU216HW,2013-01-20 15:37:00,
2013-01-20 07:42:00,31.5,27.3,29.86,North,0,0.0,0.0,84,0.00,,,0.00,WUHU216HW,2013-01-20 15:42:00,
2013-01-20 07:47:00,31.7,27.5,29.86,North,0,0.0,0.0,84,0.00,,,0.00,WUHU216HW,2013-01-20 15:47:00,
2013-01-20 07:53:00,31.7,27.5,29.86,North,0,0.0,0.0,84,0.00,,,0.00,WUHU216HW,2013-01-20 15:53:00,
2013-01-20 07:58:00,31.7,27.5,29.86,North,0,0.0,0.0,84,0.00,,,0.00,WUHU216HW,2013-01-20 15:58:00,
2013-01-20 08:03:00,31.7,27.5,29.86,North,0,0.0,0.0,84,0.00,,,0.00,WUHU216HW,2013-01-20 16:03:00,
2013-01-20 08:08:00,31.9,27.6,29.86,North,0,0.0,0.0,84,0.00,,,0.00,WUHU216HW,2013-01-20 16:08:00,
2013-01-20 08:13:00,31.9,27.6,29.86,North,0,0.0,0.0,84,0.00,,,0.00,WUHU216HW,2013-01-20 16:13:00,
2013-01-20 08:18:00,32.0,28.1,29.86,North,0,0.0,0.0,85,0.00,,,0.00,WUHU216HW,2013-01-20 16:18:00,
2013-01-20 08:24:00,32.4,28.5,29.87,North,0,0.0,0.0,85,0.00,,,0.00,WUHU216HW,2013-01-20 16:24:00,
2013-01-20 08:29:00,32.8,29.0,29.87,North,0,0.0,0.0,86,0.00,,,0.00,WUHU216HW,2013-01-20 16:29:00,
2013-01-20 08:34:00,33.5,29.7,29.87,North,0,0.0,0.0,86,0.00,,,0.00,WUHU216HW,2013-01-20 16:34:00,
2013-01-20 08:39:00,34.2,30.3,29.87,North,0,0.0,0.0,86,0.00,,,0.00,WUHU216HW,2013-01-20 16:39:00,
2013-01-20 08:44:00,34.9,31.3,29.87,North,0,0.0,0.0,87,0.00,,,0.00,WUHU216HW,2013-01-20 16:44:00,
2013-01-20 08:49:00,35.6,32.0,29.87,North,0,0.0,0.0,87,0.00,,,0.00,WUHU216HW,2013-01-20 16:49:00,
2013-01-20 08:55:00,36.4,32.8,29.87,North,0,0.0,0.0,87,0.00,,,0.00,WUHU216HW,2013-01-20 16:55:00,
2013-01-20 09:00:00,37.3,33.7,29.87,North,0,0.0,0.0,87,0.00,,,0.00,WUHU216HW,2013-01-20 17:00:00,
2013-01-20 09:05:00,37.8,34.2,29.87,North,0,0.0,0.0,87,0.00,,,0.00,WUHU216HW,2013-01-20 17:05:00,
2013-01-20 09:10:00,38.7,35.1,29.87,North,0,0.0,0.0,87,0.00,,,0.00,WUHU216HW,2013-01-20 17:10:00,
2013-01-20 09:15:00,39.2,35.4,29.87,North,0,0.0,0.0,86,0.00,,,0.00,WUHU216HW,2013-01-20 17:15:00,
2013-01-20 09:20:00,40.0,35.8,29.87,North,0,0.0,0.0,85,0.00,,,0.00,WUHU216HW,2013-01-20 17:20:00,
2013-01-20 09:25:00,40.5,36.3,29.87,North,0,0.0,0.0,85,0.00,,,0.00,WUHU216HW,2013-01-20 17:25:00,
2013-01-20 09:31:00,41.0,36.6,29.88,North,0,0.0,0.0,84,0.00,,,0.00,WUHU216HW,2013-01-20 17:31:00,
2013-01-20 09:36:00,41.6,37.1,29.88,North,0,0.0,0.0,84,0.00,,,0.00,WUHU216HW,2013-01-20 17:36:00,
2013-01-20 09:41:00,42.1,37.6,29.88,North,0,0.0,0.0,84,0.00,,,0.00,WUHU216HW,2013-01-20 17:41:00,
2013-01-20 09:46:00,42.7,38.2,29.88,North,0,0.0,0.0,84,0.00,,,0.00,WUHU216HW,2013-01-20 17:46:00,
2013-01-20 09:51:00,43.0,38.2,29.88,North,0,0.0,0.0,83,0.00,,,0.00,WUHU216HW,2013-01-20 17:51:00,
2013-01-20 09:56:00,43.6,38.7,29.88,North,0,0.0,0.0,83,0.00,,,0.00,WUHU216HW,2013-01-20 17:56:00,
2013-01-20 10:01:00,44.1,39.0,29.88,North,0,0.0,0.0,82,0.00,,,0.00,WUHU216HW,2013-01-20 18:01:00,
2013-01-20 10:07:00,44.5,39.3,29.88,North,0,0.0,0.0,82,0.00,,,0.00,WUHU216HW,2013-01-20 18:07:00,
2013-01-20 10:12:00,45.2,39.7,29.88,North,0,0.0,0.0,81,0.00,,,0.00,WUHU216HW,2013-01-20 18:12:00,
2013-01-20 10:17:00,45.9,40.4,29.88,North,0,0.0,0.0,81,0.00,,,0.00,WUHU216HW,2013-01-20 18:17:00,
2013-01-20 10:22:00,46.6,40.5,29.88,North,0,0.0,0.0,79,0.00,,,0.00,WUHU216HW,2013-01-20 18:22:00,
2013-01-20 10:27:00,47.2,41.0,29.88,North,0,0.0,0.0,79,0.00,,,0.00,WUHU216HW,2013-01-20 18:27:00,
2013-01-20 10:32:00,47.9,41.3,29.88,North,0,0.0,0.0,78,0.00,,,0.00,WUHU216HW,2013-01-20 18:32:00,
2013-01-20 10:38:00,48.4,41.5,29.87,North,0,0.0,0.0,77,0.00,,,0.00,WUHU216HW,2013-01-20 18:38:00,
2013-01-20 10:43:00,49.0,41.7,29.87,North,0,0.0,0.0,76,0.00,,,0.00,WUHU216HW,2013-01-20 18:43:00,
2013-01-20 10:48:00,49.5,41.9,29.87,North,0,0.0,0.0,75,0.00,,,0.00,WUHU216HW,2013-01-20 18:48:00,
2013-01-20 10:53:00,50.0,42.0,29.87,North,0,0.0,0.0,74,0.00,,,0.00,WUHU216HW,2013-01-20 18:53:00,
2013-01-20 10:58:00,50.6,42.2,29.87,North,0,0.0,0.0,73,0.00,,,0.00,WUHU216HW,2013-01-20 18:58:00,
2013-01-20 11:03:00,51.1,42.5,29.87,North,0,0.0,0.0,72,0.00,,,0.00,WUHU216HW,2013-01-20 19:03:00,
2013-01-20 11:08:00,51.7,42.7,29.86,North,0,0.0,0.0,71,0.00,,,0.00,WUHU216HW,2013-01-20 19:08:00,
2013-01-20 11:14:00,52.2,42.9,29.86,North,0,0.0,0.0,70,0.00,,,0.00,WUHU216HW,2013-01-20 19:14:00,
2013-01-20 11:19:00,52.6,42.8,29.86,North,0,0.0,0.0,69,0.00,,,0.00,WUHU216HW,2013-01-20 19:19:00,
2013-01-20 11:24:00,53.1,43.2,29.86,North,0,0.0,0.0,69,0.00,,,0.00,WUHU216HW,2013-01-20 19:24:00,
2013-01-20 11:29:00,53.6,43.3,29.86,North,0,0.0,0.0,68,0.00,,,0.00,WUHU216HW,2013-01-20 19:29:00,
2013-01-20 11:34:00,54.0,43.3,29.85,North,0,0.0,0.0,67,0.00,,,0.00,WUHU216HW,2013-01-20 19:34:00,
2013-01-20 11:39:00,54.7,42.8,29.85,North,0,0.0,0.0,64,0.00,,,0.00,WUHU216HW,2013-01-20 19:39:00,
2013-01-20 11:45:00,55.1,43.1,29.85,North,0,0.0,0.0,64,0.00,,,0.00,WUHU216HW,2013-01-20 19:45:00,
2013-01-20 11:50:00,55.3,42.9,29.85,North,0,0.0,0.0,63,0.00,,,0.00,WUHU216HW,2013-01-20 19:50:00,
2013-01-20 11:55:00,55.4,42.6,29.85,North,0,0.0,0.0,62,0.00,,,0.00,WUHU216HW,2013-01-20 19:55:00,
2013-01-20 12:00:00,55.8,42.9,29.84,North,0,0.0,0.0,62,0.00,,,0.00,WUHU216HW,2013-01-20 20:00:00,
2013-01-20 12:05:00,56.2,43.3,29.84,North,0,0.0,0.0,62,0.00,,,0.00,WUHU216HW,2013-01-20 20:05:00,
2013-01-20 12:10:00,56.3,43.0,29.84,North,0,0.0,0.0,61,0.00,,,0.00,WUHU216HW,2013-01-20 20:10:00,
2013-01-20 12:16:00,56.5,42.8,29.83,North,0,0.0,0.0,60,0.00,,,0.00,WUHU216HW,2013-01-20 20:16:00,
2013-01-20 12:21:00,56.7,43.0,29.83,North,0,0.0,0.0,60,0.00,,,0.00,WUHU216HW,2013-01-20 20:21:00,
2013-01-20 12:26:00,57.1,42.9,29.83,North,0,0.0,0.0,59,0.00,,,0.00,WUHU216HW,2013-01-20 20:26:00,
2013-01-20 12:31:00,57.2,42.7,29.83,North,0,0.0,0.0,58,0.00,,,0.00,WUHU216HW,2013-01-20 20:31:00,
2013-01-20 12:36:00,57.2,42.1,29.82,North,0,0.0,0.0,57,0.00,,,0.00,WUHU216HW,2013-01-20 20:36:00,
2013-01-20 12:41:00,57.4,42.3,29.82,North,0,0.0,0.0,57,0.00,,,0.00,WUHU216HW,2013-01-20 20:41:00,
2013-01-20 12:47:00,57.6,41.6,29.82,North,0,0.0,0.0,55,0.00,,,0.00,WUHU216HW,2013-01-20 20:47:00,
2013-01-20 12:52:00,58.0,42.3,29.82,North,0,0.0,0.0,56,0.00,,,0.00,WUHU216HW,2013-01-20 20:52:00,
2013-01-20 12:57:00,58.1,42.0,29.81,North,0,0.0,0.0,55,0.00,,,0.00,WUHU216HW,2013-01-20 20:57:00,
2013-01-20 13:02:00,58.3,41.8,29.81,North,0,0.0,0.0,54,0.00,,,0.00,WUHU216HW,2013-01-20 21:02:00,
2013-01-20 13:07:00,58.7,41.6,29.80,North,0,0.0,0.0,53,0.00,,,0.00,WUHU216HW,2013-01-20 21:07:00,
2013-01-20 13:12:00,58.9,40.3,29.80,North,0,0.0,0.0,50,0.00,,,0.00,WUHU216HW,2013-01-20 21:12:00,
2013-01-20 13:17:00,59.0,41.4,29.80,North,0,0.0,0.0,52,0.00,,,0.00,WUHU216HW,2013-01-20 21:17:00,
2013-01-20 13:23:00,59.4,40.9,29.80,North,0,0.0,0.0,50,0.00,,,0.00,WUHU216HW,2013-01-20 21:23:00,
2013-01-20 13:28:00,59.6,41.0,29.80,North,0,0.0,0.0,50,0.00,,,0.00,WUHU216HW,2013-01-20 21:28:00,
2013-01-20 13:33:00,59.8,41.1,29.80,North,0,0.0,0.0,50,0.00,,,0.00,WUHU216HW,2013-01-20 21:33:00,
2013-01-20 13:38:00,59.9,41.3,29.79,North,0,0.0,0.0,50,0.00,,,0.00,WUHU216HW,2013-01-20 21:38:00,
2013-01-20 13:43:00,60.1,41.5,29.79,North,0,0.0,0.0,50,0.00,,,0.00,WUHU216HW,2013-01-20 21:43:00,
2013-01-20 13:48:00,60.1,40.9,29.79,North,0,0.0,0.0,49,0.00,,,0.00,WUHU216HW,2013-01-20 21:48:00,
2013-01-20 13:54:00,60.3,41.0,29.79,North,0,0.0,0.0,49,0.00,,,0.00,WUHU216HW,2013-01-20 21:54:00,
2013-01-20 13:59:00,60.5,40.1,29.78,North,0,0.0,0.0,47,0.00,,,0.00,WUHU216HW,2013-01-20 21:59:00,
2013-01-20 14:04:00,60.7,40.2,29.78,North,0,0.0,0.0,47,0.00,,,0.00,WUHU216HW,2013-01-20 22:04:00,
2013-01-20 14:09:00,60.7,40.2,29.78,North,0,0.0,0.0,47,0.00,,,0.00,WUHU216HW,2013-01-20 22:09:00,
2013-01-20 14:14:00,60.8,39.8,29.78,North,0,0.0,0.0,46,0.00,,,0.00,WUHU216HW,2013-01-20 22:14:00,
2013-01-20 14:19:00,60.7,39.7,29.78,North,0,0.0,0.0,46,0.00,,,0.00,WUHU216HW,2013-01-20 22:19:00,
2013-01-20 14:24:00,60.7,39.7,29.78,North,0,0.0,0.0,46,0.00,,,0.00,WUHU216HW,2013-01-20 22:24:00,
2013-01-20 14:30:00,60.5,38.9,29.78,North,0,0.0,0.0,45,0.00,,,0.00,WUHU216HW,2013-01-20 22:30:00,
2013-01-20 14:35:00,60.7,39.1,29.78,North,0,0.0,0.0,45,0.00,,,0.00,WUHU216HW,2013-01-20 22:35:00,
2013-01-20 14:40:00,60.7,39.1,29.77,North,0,0.0,0.0,45,0.00,,,0.00,WUHU216HW,2013-01-20 22:40:00,
2013-01-20 14:45:00,60.7,39.1,29.77,North,0,0.0,0.0,45,0.00,,,0.00,WUHU216HW,2013-01-20 22:45:00,
2013-01-20 14:50:00,60.7,39.1,29.77,North,0,0.0,0.0,45,0.00,,,0.00,WUHU216HW,2013-01-20 22:50:00,
2013-01-20 14:55:00,60.7,39.1,29.77,North,0,0.0,0.0,45,0.00,,,0.00,WUHU216HW,2013-01-20 22:55:00,
2013-01-20 15:01:00,60.5,38.3,29.77,North,0,0.0,0.0,44,0.00,,,0.00,WUHU216HW,2013-01-20 23:01:00,
2013-01-20 15:06:00,60.5,38.9,29.77,North,0,0.0,0.0,45,0.00,,,0.00,WUHU216HW,2013-01-20 23:06:00,
2013-01-20 15:11:00,60.5,38.3,29.77,North,0,0.0,0.0,44,0.00,,,0.00,WUHU216HW,2013-01-20 23:11:00,
2013-01-20 15:16:00,60.5,38.3,29.76,North,0,0.0,0.0,44,0.00,,,0.00,WUHU216HW,2013-01-20 23:16:00,
2013-01-20 15:21:00,60.5,38.3,29.76,North,0,0.0,0.0,44,0.00,,,0.00,WUHU216HW,2013-01-20 23:21:00,
2013-01-20 15:26:00,60.7,38.5,29.76,North,0,0.0,0.0,44,0.00,,,0.00,WUHU216HW,2013-01-20 23:26:00,
2013-01-20 15:31:00,60.5,37.8,29.76,North,0,0.0,0.0,43,0.00,,,0.00,WUHU216HW,2013-01-20 23:31:00,
2013-01-20 15:37:00,60.3,37.6,29.76,North,0,0.0,0.0,43,0.00,,,0.00,WUHU216HW,2013-01-20 23:37:00,
2013-01-20 15:42:00,60.1,37.4,29.76,North,0,0.0,0.0,43,0.00,,,0.00,WUHU216HW,2013-01-20 23:42:00,
2013-01-20 15:47:00,60.1,36.9,29.77,North,0,0.0,0.0,42,0.00,,,0.00,WUHU216HW,2013-01-20 23:47:00,
2013-01-20 15:52:00,60.1,37.4,29.76,North,0,0.0,0.0,43,0.00,,,0.00,WUHU216HW,2013-01-20 23:52:00,
2013-01-20 15:57:00,60.1,37.4,29.77,North,0,0.0,0.0,43,0.00,,,0.00,WUHU216HW,2013-01-20 23:57:00,
2013-01-20 16:02:00,59.8,37.1,29.77,North,0,0.0,0.0,43,0.00,,,0.00,WUHU216HW,2013-01-21 00:02:00,
2013-01-20 16:08:00,59.6,37.0,29.77,North,0,0.0,0.0,43,0.00,,,0.00,WUHU216HW,2013-01-21 00:08:00,
2013-01-20 16:13:00,59.4,36.8,29.77,North,0,0.0,0.0,43,0.00,,,0.00,WUHU216HW,2013-01-21 00:13:00,
2013-01-20 16:18:00,59.6,36.4,29.77,North,0,0.0,0.0,42,0.00,,,0.00,WUHU216HW,2013-01-21 00:18:00,
2013-01-20 16:23:00,59.9,36.1,29.77,North,0,0.0,0.0,41,0.00,,,0.00,WUHU216HW,2013-01-21 00:23:00,
2013-01-20 16:28:00,60.1,36.3,29.77,North,0,0.0,0.0,41,0.00,,,0.00,WUHU216HW,2013-01-21 00:28:00,
2013-01-20 16:33:00,60.3,36.5,29.77,North,0,0.0,0.0,41,0.00,,,0.00,WUHU216HW,2013-01-21 00:33:00,
2013-01-20 16:38:00,60.1,37.4,29.77,North,0,0.0,0.0,43,0.00,,,0.00,WUHU216HW,2013-01-21 00:38:00,
2013-01-20 16:44:00,60.1,38.0,29.78,North,0,0.0,0.0,44,0.00,,,0.00,WUHU216HW,2013-01-21 00:44:00,
2013-01-20 16:49:00,59.6,38.7,29.78,North,0,0.0,0.0,46,0.00,,,0.00,WUHU216HW,2013-01-21 00:49:00,
2013-01-20 16:54:00,59.2,39.0,29.78,North,0,0.0,0.0,47,0.00,,,0.00,WUHU216HW,2013-01-21 00:54:00,
2013-01-20 16:59:00,58.7,38.4,29.78,North,0,0.0,0.0,47,0.00,,,0.00,WUHU216HW,2013-01-21 00:59:00,
2013-01-20 17:04:00,58.3,38.7,29.78,North,0,0.0,0.0,48,0.00,,,0.00,WUHU216HW,2013-01-21 01:04:00,
2013-01-20 17:09:00,57.8,38.3,29.77,North,0,0.0,0.0,48,0.00,,,0.00,WUHU216HW,2013-01-21 01:09:00,
2013-01-20 17:15:00,57.4,37.9,29.77,North,0,0.0,0.0,48,0.00,,,0.00,WUHU216HW,2013-01-21 01:15:00,
2013-01-20 17:20:00,57.1,37.5,29.78,North,0,0.0,0.0,48,0.00,,,0.00,WUHU216HW,2013-01-21 01:20:00,
2013-01-20 17:25:00,56.7,37.2,29.78,North,0,0.0,0.0,48,0.00,,,0.00,WUHU216HW,2013-01-21 01:25:00,
2013-01-20 17:30:00,56.2,36.6,29.78,North,0,0.0,0.0,48,0.00,,,0.00,WUHU216HW,2013-01-21 01:30:00,
2013-01-20 17:35:00,55.6,36.7,29.78,North,0,0.0,0.0,49,0.00,,,0.00,WUHU216HW,2013-01-21 01:35:00,
2013-01-20 17:40:00,55.1,36.2,29.78,North,0,0.0,0.0,49,0.00,,,0.00,WUHU216HW,2013-01-21 01:40:00,
2013-01-20 17:46:00,54.7,36.5,29.78,North,0,0.0,0.0,50,0.00,,,0.00,WUHU216HW,2013-01-21 01:46:00,
2013-01-20 17:51:00,54.4,35.6,29.78,North,0,0.0,0.0,49,0.00,,,0.00,WUHU216HW,2013-01-21 01:51:00,
2013-01-20 17:56:00,54.0,35.2,29.78,North,0,0.0,0.0,49,0.00,,,0.00,WUHU216HW,2013-01-21 01:56:00,
2013-01-20 18:01:00,53.5,35.3,29.78,North,0,0.0,0.0,50,0.00,,,0.00,WUHU216HW,2013-01-21 02:01:00,
2013-01-20 18:06:00,52.9,34.8,29.78,North,0,0.0,0.0,50,0.00,,,0.00,WUHU216HW,2013-01-21 02:06:00,
2013-01-20 18:11:00,52.4,34.3,29.78,North,0,0.0,0.0,50,0.00,,,0.00,WUHU216HW,2013-01-21 02:11:00,
2013-01-20 18:17:00,52.0,34.5,29.78,North,0,0.0,0.0,51,0.00,,,0.00,WUHU216HW,2013-01-21 02:17:00,
2013-01-20 18:22:00,51.5,33.9,29.78,North,0,0.0,0.0,51,0.00,,,0.00,WUHU216HW,2013-01-21 02:22:00,
2013-01-20 18:27:00,51.1,34.1,29.78,North,0,0.0,0.0,52,0.00,,,0.00,WUHU216HW,2013-01-21 02:27:00,
2013-01-20 18:32:00,50.8,33.8,29.78,North,0,0.0,0.0,52,0.00,,,0.00,WUHU216HW,2013-01-21 02:32:00,
2013-01-20 18:37:00,50.4,33.9,29.78,North,0,0.0,0.0,53,0.00,,,0.00,WUHU216HW,2013-01-21 02:37:00,
2013-01-20 18:42:00,50.0,33.6,29.79,North,0,0.0,0.0,53,0.00,,,0.00,WUHU216HW,2013-01-21 02:42:00,
2013-01-20 18:47:00,49.7,33.7,29.79,North,0,0.0,0.0,54,0.00,,,0.00,WUHU216HW,2013-01-21 02:47:00,
2013-01-20 18:53:00,49.3,33.3,29.79,North,0,0.0,0.0,54,0.00,,,0.00,WUHU216HW,2013-01-21 02:53:00,
2013-01-20 18:58:00,49.1,33.7,29.79,North,0,0.0,0.0,55,0.00,,,0.00,WUHU216HW,2013-01-21 02:58:00,
2013-01-20 19:03:00,49.0,33.5,29.79,North,0,0.0,0.0,55,0.00,,,0.00,WUHU216HW,2013-01-21 03:03:00,
2013-01-20 19:08:00,48.6,33.1,29.80,North,0,0.0,0.0,55,0.00,,,0.00,WUHU216HW,2013-01-21 03:08:00,
2013-01-20 19:13:00,48.4,33.4,29.80,North,0,0.0,0.0,56,0.00,,,0.00,WUHU216HW,2013-01-21 03:13:00,
2013-01-20 19:18:00,48.1,33.0,29.80,North,0,0.0,0.0,56,0.00,,,0.00,WUHU216HW,2013-01-21 03:18:00,
2013-01-20 19:23:00,47.7,33.2,29.80,North,0,0.0,0.0,57,0.00,,,0.00,WUHU216HW,2013-01-21 03:23:00,
2013-01-20 19:28:00,47.3,32.9,29.80,North,0,0.0,0.0,57,0.00,,,0.00,WUHU216HW,2013-01-21 03:28:00,
2013-01-20 19:33:00,47.0,33.0,29.80,North,0,0.0,0.0,58,0.00,,,0.00,WUHU216HW,2013-01-21 03:33:00,
2013-01-20 19:38:00,46.8,32.3,29.80,North,0,0.0,0.0,57,0.00,,,0.00,WUHU216HW,2013-01-21 03:38:00,
2013-01-20 19:43:00,46.4,32.4,29.80,North,0,0.0,0.0,58,0.00,,,0.00,WUHU216HW,2013-01-21 03:43:00,
2013-01-20 19:48:00,46.3,32.2,29.80,North,0,0.0,0.0,58,0.00,,,0.00,WUHU216HW,2013-01-21 03:48:00,
2013-01-20 19:53:00,45.9,32.4,29.80,North,0,0.0,0.0,59,0.00,,,0.00,WUHU216HW,2013-01-21 03:53:00,
2013-01-20 19:59:00,45.7,32.2,29.80,North,0,0.0,0.0,59,0.00,,,0.00,WUHU216HW,2013-01-21 03:59:00,
2013-01-20 20:04:00,45.5,32.5,29.80,North,0,0.0,0.0,60,0.00,,,0.00,WUHU216HW,2013-01-21 04:04:00,
2013-01-20 20:09:00,45.4,32.3,29.80,North,0,0.0,0.0,60,0.00,,,0.00,WUHU216HW,2013-01-21 04:09:00,
2013-01-20 20:14:00,45.2,32.1,29.80,North,0,0.0,0.0,60,0.00,,,0.00,WUHU216HW,2013-01-21 04:14:00,
2013-01-20 20:19:00,45.0,32.4,29.80,North,0,0.0,0.0,61,0.00,,,0.00,WUHU216HW,2013-01-21 04:19:00,
2013-01-20 20:24:00,45.0,32.4,29.80,North,0,0.0,0.0,61,0.00,,,0.00,WUHU216HW,2013-01-21 04:24:00,
2013-01-20 20:29:00,44.8,32.6,29.80,North,0,0.0,0.0,62,0.00,,,0.00,WUHU216HW,2013-01-21 04:29:00,
2013-01-20 20:34:00,44.6,32.4,29.80,North,0,0.0,0.0,62,0.00,,,0.00,WUHU216HW,2013-01-21 04:34:00,
2013-01-20 20:39:00,44.3,32.0,29.80,North,0,0.0,0.0,62,0.00,,,0.00,WUHU216HW,2013-01-21 04:39:00,
2013-01-20 20:44:00,44.3,32.5,29.80,North,0,0.0,0.0,63,0.00,,,0.00,WUHU216HW,2013-01-21 04:44:00,
2013-01-20 20:49:00,43.9,32.1,29.81,North,0,0.0,0.0,63,0.00,,,0.00,WUHU216HW,2013-01-21 04:49:00,
2013-01-20 20:54:00,43.7,32.0,29.80,North,0,0.0,0.0,63,0.00,,,0.00,WUHU216HW,2013-01-21 04:54:00,
2013-01-20 20:59:00,43.6,31.8,29.81,North,0,0.0,0.0,63,0.00,,,0.00,WUHU216HW,2013-01-21 04:59:00,
2013-01-20 21:00:00,43.6,31.8,29.81,North,0,0.0,0.0,63,0.00,,,0.00,WUHU216HW,2013-01-21 05:00:00,
2013-01-20 21:03:00,43.4,32.0,29.81,North,0,0.0,0.0,64,0.00,,,0.00,WUHU216HW,2013-01-21 05:03:00,
2013-01-20 21:04:00,43.4,32.0,29.81,North,0,0.0,0.0,64,0.00,,,0.00,WUHU216HW,2013-01-21 05:04:00,
2013-01-20 21:09:00,43.2,31.8,29.81,North,0,0.0,0.0,64,0.00,,,0.00,WUHU216HW,2013-01-21 05:09:00,
2013-01-20 21:14:00,42.8,31.9,29.81,North,0,0.0,0.0,65,0.00,,,0.00,WUHU216HW,2013-01-21 05:14:00,
2013-01-20 21:19:00,42.8,31.9,29.81,North,0,0.0,0.0,65,0.00,,,0.00,WUHU216HW,2013-01-21 05:19:00,
2013-01-20 21:24:00,42.7,31.7,29.81,North,0,0.0,0.0,65,0.00,,,0.00,WUHU216HW,2013-01-21 05:24:00,
2013-01-20 21:29:00,42.5,32.0,29.80,North,0,0.0,0.0,66,0.00,,,0.00,WUHU216HW,2013-01-21 05:29:00,
2013-01-20 21:35:00,42.5,32.0,29.81,North,0,0.0,0.0,66,0.00,,,0.00,WUHU216HW,2013-01-21 05:35:00,
2013-01-20 21:40:00,42.3,31.8,29.81,North,0,0.0,0.0,66,0.00,,,0.00,WUHU216HW,2013-01-21 05:40:00,
2013-01-20 21:45:00,42.3,32.1,29.81,North,0,0.0,0.0,67,0.00,,,0.00,WUHU216HW,2013-01-21 05:45:00,
2013-01-20 21:50:00,42.1,32.0,29.81,North,0,0.0,0.0,67,0.00,,,0.00,WUHU216HW,2013-01-21 05:50:00,
2013-01-20 21:55:00,41.9,31.8,29.81,North,0,0.0,0.0,67,0.00,,,0.00,WUHU216HW,2013-01-21 05:55:00,
2013-01-20 22:00:00,41.8,31.6,29.81,North,0,0.0,0.0,67,0.00,,,0.00,WUHU216HW,2013-01-21 06:00:00,
2013-01-20 22:05:00,41.8,31.6,29.81,North,0,0.0,0.0,67,0.00,,,0.00,WUHU216HW,2013-01-21 06:05:00,
2013-01-20 22:10:00,41.6,31.4,29.81,North,0,0.0,0.0,67,0.00,,,0.00,WUHU216HW,2013-01-21 06:10:00,
2013-01-20 22:15:00,41.4,31.2,29.81,North,0,0.0,0.0,67,0.00,,,0.00,WUHU216HW,2013-01-21 06:15:00,
2013-01-20 22:20:00,41.4,31.7,29.81,North,0,0.0,0.0,68,0.00,,,0.00,WUHU216HW,2013-01-21 06:20:00,
2013-01-20 22:25:00,41.2,31.5,29.82,North,0,0.0,0.0,68,0.00,,,0.00,WUHU216HW,2013-01-21 06:25:00,
2013-01-20 22:30:00,41.0,31.3,29.82,North,0,0.0,0.0,68,0.00,,,0.00,WUHU216HW,2013-01-21 06:30:00,
2013-01-20 22:36:00,41.0,31.3,29.82,North,0,0.0,0.0,68,0.00,,,0.00,WUHU216HW,2013-01-21 06:36:00,
2013-01-20 22:41:00,40.9,31.5,29.82,North,0,0.0,0.0,69,0.00,,,0.00,WUHU216HW,2013-01-21 06:41:00,
2013-01-20 22:46:00,40.7,31.3,29.82,North,0,0.0,0.0,69,0.00,,,0.00,WUHU216HW,2013-01-21 06:46:00,
2013-01-20 22:51:00,40.7,31.7,29.82,North,0,0.0,0.0,70,0.00,,,0.00,WUHU216HW,2013-01-21 06:51:00,
2013-01-20 22:56:00,40.7,31.7,29.82,North,0,0.0,0.0,70,0.00,,,0.00,WUHU216HW,2013-01-21 06:56:00,
2013-01-20 23:01:00,40.7,31.7,29.82,North,0,0.0,0.0,70,0.00,,,0.00,WUHU216HW,2013-01-21 07:01:00,
2013-01-20 23:07:00,40.3,31.3,29.81,North,0,0.0,0.0,70,0.00,,,0.00,WUHU216HW,2013-01-21 07:07:00,
2013-01-20 23:12:00,40.1,31.1,29.81,North,0,0.0,0.0,70,0.00,,,0.00,WUHU216HW,2013-01-21 07:12:00,
2013-01-20 23:17:00,40.0,31.3,29.81,North,0,0.0,0.0,71,0.00,,,0.00,WUHU216HW,2013-01-21 07:17:00,
2013-01-20 23:22:00,39.8,31.2,29.81,North,0,0.0,0.0,71,0.00,,,0.00,WUHU216HW,2013-01-21 07:22:00,
2013-01-20 23:27:00,39.6,31.0,29.81,North,0,0.0,0.0,71,0.00,,,0.00,WUHU216HW,2013-01-21 07:27:00,
2013-01-20 23:32:00,39.6,31.0,29.81,North,0,0.0,0.0,71,0.00,,,0.00,WUHU216HW,2013-01-21 07:32:00,
2013-01-20 23:37:00,39.4,31.2,29.81,North,0,0.0,0.0,72,0.00,,,0.00,WUHU216HW,2013-01-21 07:37:00,
2013-01-20 23:42:00,39.4,31.2,29.80,North,0,0.0,0.0,72,0.00,,,0.00,WUHU216HW,2013-01-21 07:42:00,
2013-01-20 23:47:00,39.2,31.0,29.81,North,0,0.0,0.0,72,0.00,,,0.00,WUHU216HW,2013-01-21 07:47:00,
2013-01-20 23:52:00,39.1,30.8,29.81,North,0,0.0,0.0,72,0.00,,,0.00,WUHU216HW,2013-01-21 07:52:00,
2013-01-20 23:58:00,38.9,30.6,29.81,North,0,0.0,0.0,72,0.00,,,0.00,WUHU216HW,2013-01-21 07:58:00,